{"data":{"norad_id":65830,"intl_designator":"2025-221H","name":"STARLINK-35368","alt_names":[],"object_type":"PAYLOAD","status":"ACTIVE","operator":null,"country":"US","launch_date":"2025-09-29","launch_site_code":"AFWTR","launch_vehicle":null,"mission":null,"orbit_class":"UNKNOWN","rcs_meters":null,"size_class":null,"mass_kg":null,"dimensions":null,"purposes":["comms"],"wikipedia_slug":null,"has_3d_model":false,"image_url":null,"decayed_at":null,"tle_current":{"epoch":"2026-09-20T22:54:35.077824Z","epoch_age_seconds":66838,"freshness":"FRESH","line1":"1 65830U 25221H   26263.95457266  .00012215  00000+0  37211-3 0  9994","line2":"2 65830  53.1580 259.6397 0001785  95.6644 264.4563 15.34396859 55960","mean_motion":15.34396859,"eccentricity":0.0001785,"inclination_deg":53.158,"raan_deg":259.6397,"arg_perigee_deg":95.6644,"mean_anomaly_deg":264.4563,"bstar":0.00037211,"rev_number":5596,"period_min":93.847950193178,"perigee_km":461.49148428766,"apogee_km":463.93366758627,"semimajor_km":6840.849575937,"source":"CELESTRAK","updated_at":"2026-09-21T09:00:35.720346Z"}}}